Regional Weather Roundup
Issued by NWS

Home | Current Version | Previous Version | Graphics & Text | Print | Product List | Glossary On
Versions: 1 2 3 4 5 6 7 8 9 10 11 12 13 14 15 16 17 18 19 20 21 22 23 24 25 26 27 28 29 30 31 32 33 34 35 36 37 38 39 40 41 42 43 44 45 46 47 48 49 50
000
ASUS43 KLMK 040002
RWRKY
KENTUCKY REGIONAL WEATHER ROUNDUP
NATIONAL WEATHER SERVICE LOUISVILLE KY
800 PM EDT TUE MAY 03 2016

NOTE "FAIR" INDICATES FEW OR NO CLOUDS BELOW 12,000 FEET
WITH NO SIGNIFICANT WEATHER AND/OR OBSTRUCTIONS TO VISIBILITY.

KYZ001>023-026-027-061>063-070>075-040100-
WESTERN AND SOUTH CENTRAL KENTUCKY

CITY           SKY/WX    TMP DP  RH WIND       PRES   REMARKS
PADUCAH        CLOUDY    60  46  59 W3        29.93F
HENDERSON      CLOUDY    63  39  42 NW7       29.91S
OWENSBORO      CLOUDY    61  43  51 NW7       29.92S
HOPKINSVILLE   CLOUDY    60  46  59 NW5       29.92S
BOWLING GREEN  CLOUDY    61  44  53 NW6       29.92S
GLASGOW        NOT AVBL
$$

KYZ024-025-028>034-038-045-046-053-040100-
NORTH CENTRAL KENTUCKY

CITY           SKY/WX    TMP DP  RH WIND       PRES   REMARKS
LOUISVILLE/SDF CLOUDY    59  43  55 NW9       29.90S
LOUISVILLE/LOU CLOUDY    58  46  64 N3        29.90F
FORT KNOX      NOT AVBL
$$

KYZ035>037-039>044-047>052-055>060-089>105-040100-
NORTHEAST KENTUCKY

CITY           SKY/WX    TMP DP  RH WIND       PRES   REMARKS
LEXINGTON      CLOUDY    57  49  74 N7        29.88S
COVINGTON      CLOUDY    55  51  86 SW3       29.87F
FRANKFORT      CLOUDY    58  46  64 NW10      29.88S
$$

KYZ054-064>069-076>088-106>120-040100-
SOUTHEAST KENTUCKY

CITY           SKY/WX    TMP DP  RH WIND       PRES   REMARKS
JACKSON        CLOUDY    56  45  66 MISG      29.88S
LONDON         CLOUDY    58  45  62 NW7       29.89S
SOMERSET       NOT AVBL
MIDDLESBORO    NOT AVBL
MONTICELLO     CLOUDY    60  49  66 W6        29.92S
$$





USA.gov is the U.S. government's official web portal to all federal, state and local government web resources and services.